Location: Caixon
(43.4106°N, 0.0273°E)
Time: 16:16:40
(UTC+00:00)

FENGYUN 3A - Pass Details

Date: 16 October 2021
Orbit: 824 x 835 km, 98.5° (Epoch: 29 November)

Event Time Altitude Azimuth Distance (km) Brightness Sun altitude
Rises 04:21:49 0° 8° (N) 3,386 7.0 -21.3°
Reaches altitude 10° 04:24:14 10° 4° (N) 2,449 6.2 -20.9°
Maximum altitude 04:29:29 53° 289° (WNW) 1,022 3.8 -19.9°
Enters shadow 04:32:05 28° 227° (SW) 1,504 4.6 -19.4°
